Location: Beuerbach
(48.1459°N, 10.9174°E)
Time: 01:30:07
(UTC+00:00)

YAOGAN 6 - Pass Details

Date: 23 May 2024
Orbit: 411 x 434 km, 97.2° (Epoch: 13 June)

Event Time Altitude Azimuth Distance (km) Brightness Sun altitude
Rises 02:39:17 0° 19° (NNE) 2,433 7.3 -7.2°
Reaches altitude 10° 02:41:25 10° 27° (NNE) 1,556 6.5 -6.9°
Maximum altitude 02:44:34 39° 98° (E) 667 3.7 -6.6°
Drops below altitude 10° 02:47:40 10° 169° (S) 1,530 4.8 -6.2°
Sets 02:49:45 0° 177° (S) 2,387 5.7 -5.9°
